owner,sensor,date,latitude,longitude,vertical_datum,wind_speed,wind_to_direction,wind_speed_of_gust,qcFlag 
TABS,ioos:station:wmo:42046:1,2015-11-01T00:00:00Z,27.8903,-94.0367,4.0,4.775280096,339.4016632,5.89,'11111222,11111222,11111222' 
TABS,ioos:station:wmo:42046:1,2015-11-01T00:30:00Z,27.8903,-94.0367,4.0,4.632461549,284.2461937,5.77,'11111222,11111222,11111222' 
TABS,ioos:station:wmo:42046:1,2015-11-01T01:00:00Z,27.8903,-94.0367,4.0,4.436056808,346.3081631,5.42,'11111222,11111222,11111222' 
TABS,ioos:station:wmo:42046:1,2015-11-01T01:30:00Z,27.8903,-94.0367,4.0,3.743394182,350.3110256,4.96,'11111222,11111222,11111222' 
TABS,ioos:station:wmo:42046:1,2015-11-01T02:00:00Z,27.8903,-94.0367,4.0,5.395794659,357.3441953,8.13,'11111222,11111222,11111222' 
TABS,ioos:station:wmo:42046:1,2015-11-01T02:30:00Z,27.8903,-94.0367,4.0,3.2984845,14.03600019,5.83,'11111222,11111222,11111222' 
TABS,ioos:station:wmo:42046:1,2015-11-01T03:00:00Z,27.8903,-94.0367,4.0,6.580410322,3.223080211,11.05,'11111222,11111222,11111222' 
TABS,ioos:station:wmo:42046:1,2015-11-01T03:30:00Z,27.8903,-94.0367,4.0,4.423268023,30.27480384,5.87,'11111222,11111222,11111222' 
TABS,ioos:station:wmo:42046:1,2015-11-01T04:00:00Z,27.8903,-94.0367,4.0,4.32986143,64.55905025,6.05,'11111222,11111222,11111222' 
TABS,ioos:station:wmo:42046:1,2015-11-01T04:30:00Z,27.8903,-94.0367,4.0,3.353863444,67.56374324,4.38,'11111222,11111222,11111222' 
TABS,ioos:station:wmo:42046:1,2015-11-01T05:00:00Z,27.8903,-94.0367,4.0,4.631209345,66.5898605,5.71,'11111222,11111222,11111222' 
TABS,ioos:station:wmo:42046:1,2015-11-01T05:30:00Z,27.8903,-94.0367,4.0,3.881713539,122.0526673,5.25,'11111222,11111222,11111222' 
TABS,ioos:station:wmo:42046:1,2015-11-01T06:00:00Z,27.8903,-94.0367,4.0,4.264563284,99.17558254,5.34,'11111222,11111222,11111222' 
TABS,ioos:station:wmo:42046:1,2015-11-01T06:30:00Z,27.8903,-94.0367,4.0,7.139698873,85.74244564,8.15,'11111222,11111222,11111222' 
TABS,ioos:station:wmo:42046:1,2015-11-01T07:00:00Z,27.8903,-94.0367,4.0,5.607798142,83.34347821,8.67,'11111222,11111222,11111222' 
TABS,ioos:station:wmo:42046:1,2015-11-01T07:30:00Z,27.8903,-94.0367,4.0,5.260209121,79.37325757,6.46,'11111222,11111222,11111222' 
TABS,ioos:station:wmo:42046:1,2015-11-01T08:00:00Z,27.8903,-94.0367,4.0,4.399693171,79.78793922,5.83,'11111222,11111222,11111222' 
TABS,ioos:station:wmo:42046:1,2015-11-01T08:30:00Z,27.8903,-94.0367,4.0,4.830279495,83.58080736,5.53,'11111222,11111222,11111222' 
TABS,ioos:station:wmo:42046:1,2015-11-01T09:00:00Z,27.8903,-94.0367,4.0,6.650187967,90.43120713,7.59,'11111222,11111222,11111222' 
TABS,ioos:station:wmo:42046:1,2015-11-01T09:30:00Z,27.8903,-94.0367,4.0,8.448106297,87.48941038,10.03,'11111222,11111222,11111222' 
TABS,ioos:station:wmo:42046:1,2015-11-01T10:00:00Z,27.8903,-94.0367,4.0,9.986040256,82.92439549,12.34,'11111222,11111222,11111222' 
TABS,ioos:station:wmo:42046:1,2015-11-01T10:30:00Z,27.8903,-94.0367,4.0,10.76828677,94.15426429,13.75,'11111222,11111222,11111222' 
TABS,ioos:station:wmo:42046:1,2015-11-01T11:00:00Z,27.8903,-94.0367,4.0,9.40585456,79.89634763,10.8,'11111222,11111222,11111222' 
TABS,ioos:station:wmo:42046:1,2015-11-01T11:30:00Z,27.8903,-94.0367,4.0,9.093514172,94.92102545,13.33,'11111222,11111222,11111222' 
TABS,ioos:station:wmo:42046:1,2015-11-01T12:00:00Z,27.8903,-94.0367,4.0,7.907041166,81.49033138,16.22,'11111222,11111222,11111222' 
TABS,ioos:station:wmo:42046:1,2015-11-01T12:30:00Z,27.8903,-94.0367,4.0,8.05238474,85.72640051,9.53,'11111222,11111222,11111222' 
TABS,ioos:station:wmo:42046:1,2015-11-01T13:00:00Z,27.8903,-94.0367,4.0,9.292717579,76.87559476,13.75,'11111222,11111222,11111222' 
TABS,ioos:station:wmo:42046:1,2015-11-01T13:30:00Z,27.8903,-94.0367,4.0,7.511923855,88.70282854,8.65,'11111222,11111222,11111222' 
TABS,ioos:station:wmo:42046:1,2015-11-01T14:00:00Z,27.8903,-94.0367,4.0,4.89605964,82.13429175,6.5,'11111222,11111222,11111222' 
TABS,ioos:station:wmo:42046:1,2015-11-01T14:30:00Z,27.8903,-94.0367,4.0,4.214558103,78.50304295,5.26,'11111222,11111222,11111222' 
TABS,ioos:station:wmo:42046:1,2015-11-01T15:00:00Z,27.8903,-94.0367,4.0,4.533221812,70.00572102,5.45,'11111222,11111222,11111222' 
TABS,ioos:station:wmo:42046:1,2015-11-01T15:30:00Z,27.8903,-94.0367,4.0,5.141925709,71.28277825,6.29,'11111222,11111222,11111222' 
TABS,ioos:station:wmo:42046:1,2015-11-01T16:00:00Z,27.8903,-94.0367,4.0,4.838264152,85.01959113,6.45,'11111222,11111222,11111222' 
TABS,ioos:station:wmo:42046:1,2015-11-01T16:30:00Z,27.8903,-94.0367,4.0,3.040559159,81.86949574,4.13,'11111222,11111222,11111222' 
TABS,ioos:station:wmo:42046:1,2015-11-01T17:00:00Z,27.8903,-94.0367,4.0,2.433865239,98.03062816,3.84,'11111222,11111222,11111222' 
TABS,ioos:station:wmo:42046:1,2015-11-01T17:30:00Z,27.8903,-94.0367,4.0,0.995037688,84.23170367,1.8,'11111222,11111222,11111222' 
TABS,ioos:station:wmo:42046:1,2015-11-01T18:00:00Z,27.8903,-94.0367,4.0,1.774964788,45.68446022,2.71,'11111222,11111222,11111222' 
TABS,ioos:station:wmo:42046:1,2015-11-01T18:30:00Z,27.8903,-94.0367,4.0,1.652755275,68.71322375,2.61,'11111222,11111222,11111222' 
TABS,ioos:station:wmo:42046:1,2015-11-01T19:00:00Z,27.8903,-94.0367,4.0,0.331360831,5.194206302,1.29,'11111222,11111222,11111222' 
TABS,ioos:station:wmo:42046:1,2015-11-01T19:30:00Z,27.8903,-94.0367,4.0,0.322800248,286.1891684,1.53,'11111222,11111222,11111222' 
TABS,ioos:station:wmo:42046:1,2015-11-01T20:00:00Z,27.8903,-94.0367,4.0,0.459673797,315.8812967,1.54,'11111222,11111222,11111222' 
TABS,ioos:station:wmo:42046:1,2015-11-01T20:30:00Z,27.8903,-94.0367,4.0,1.260357092,271.3639243,2.12,'11111222,11111222,11111222' 
TABS,ioos:station:wmo:42046:1,2015-11-01T21:00:00Z,27.8903,-94.0367,4.0,2.45367072,277.9649667,5.88,'11111222,11111222,11111222' 
TABS,ioos:station:wmo:42046:1,2015-11-01T21:30:00Z,27.8903,-94.0367,4.0,1.710584695,310.0199068,2.87,'11111222,11111222,11111222' 
TABS,ioos:station:wmo:42046:1,2015-11-01T22:00:00Z,27.8903,-94.0367,4.0,1.736663468,308.4536193,2.36,'11111222,11111222,11111222' 
TABS,ioos:station:wmo:42046:1,2015-11-01T22:30:00Z,27.8903,-94.0367,4.0,6.754628043,284.1390752,10.1,'11111222,11111222,11111222' 
TABS,ioos:station:wmo:42046:1,2015-11-01T23:00:00Z,27.8903,-94.0367,4.0,7.896435905,287.9989441,9.26,'11111222,11111222,11111222' 
TABS,ioos:station:wmo:42046:1,2015-11-01T23:30:00Z,27.8903,-94.0367,4.0,6.405700586,309.6795034,7.33,'11111222,11111222,11111222' 
TABS,ioos:station:wmo:42046:1,2015-11-02T00:00:00Z,27.8903,-94.0367,4.0,6.714238602,311.7397418,7.72,'11111222,11111222,11111222' 
TABS,ioos:station:wmo:42046:1,2015-11-02T00:30:00Z,27.8903,-94.0367,4.0,7.192218017,307.3159309,8.9,'11111222,11111222,11111222' 
TABS,ioos:station:wmo:42046:1,2015-11-02T01:00:00Z,27.8903,-94.0367,4.0,7.34531143,319.1955347,8.33,'11111222,11111222,11111222' 
TABS,ioos:station:wmo:42046:1,2015-11-02T01:30:00Z,27.8903,-94.0367,4.0,7.219646806,314.7193111,8.78,'11111222,11111222,11111222' 
TABS,ioos:station:wmo:42046:1,2015-11-02T02:00:00Z,27.8903,-94.0367,4.0,7.568038055,322.9482801,8.75,'11111222,11111222,11111222' 
TABS,ioos:station:wmo:42046:1,2015-11-02T02:30:00Z,27.8903,-94.0367,4.0,7.520166222,316.778022,8.81,'11111222,11111222,11111222' 
TABS,ioos:station:wmo:42046:1,2015-11-02T03:00:00Z,27.8903,-94.0367,4.0,6.748073799,325.9330161,8.48,'11111222,11111222,11111222' 
TABS,ioos:station:wmo:42046:1,2015-11-02T03:30:00Z,27.8903,-94.0367,4.0,7.381395532,328.7432399,9.07,'11111222,11111222,11111222' 
TABS,ioos:station:wmo:42046:1,2015-11-02T04:00:00Z,27.8903,-94.0367,4.0,6.506273895,321.6151327,8.03,'11111222,11111222,11111222' 
TABS,ioos:station:wmo:42046:1,2015-11-02T04:30:00Z,27.8903,-94.0367,4.0,6.386180392,322.6993268,7.64,'11111222,11111222,11111222' 
TABS,ioos:station:wmo:42046:1,2015-11-02T05:00:00Z,27.8903,-94.0367,4.0,6.795770744,325.4913472,7.7,'11111222,11111222,11111222' 
TABS,ioos:station:wmo:42046:1,2015-11-02T05:30:00Z,27.8903,-94.0367,4.0,6.829150752,317.3142106,8.05,'11111222,11111222,11111222' 
TABS,ioos:station:wmo:42046:1,2015-11-02T06:00:00Z,27.8903,-94.0367,4.0,6.50824093,323.6229832,7.78,'11111222,11111222,11111222' 
TABS,ioos:station:wmo:42046:1,2015-11-02T06:30:00Z,27.8903,-94.0367,4.0,7.255239486,319.4157211,8.79,'11111222,11111222,11111222' 
TABS,ioos:station:wmo:42046:1,2015-11-02T07:00:00Z,27.8903,-94.0367,4.0,7.410168689,318.5011908,8.76,'11111222,11111222,11111222' 
TABS,ioos:station:wmo:42046:1,2015-11-02T07:30:00Z,27.8903,-94.0367,4.0,7.034657063,335.475004,8.04,'11111222,11111222,11111222' 
TABS,ioos:station:wmo:42046:1,2015-11-02T08:00:00Z,27.8903,-94.0367,4.0,6.592389552,338.650331,7.83,'11111222,11111222,11111222' 
TABS,ioos:station:wmo:42046:1,2015-11-02T08:30:00Z,27.8903,-94.0367,4.0,6.00910143,338.2161367,7.05,'11111222,11111222,11111222' 
TABS,ioos:station:wmo:42046:1,2015-11-02T09:00:00Z,27.8903,-94.0367,4.0,5.336037856,329.9752942,6.64,'11111222,11111222,11111222' 
TABS,ioos:station:wmo:42046:1,2015-11-02T09:30:00Z,27.8903,-94.0367,4.0,5.294308265,329.4629844,6.2,'11111222,11111222,11111222' 
TABS,ioos:station:wmo:42046:1,2015-11-02T10:00:00Z,27.8903,-94.0367,4.0,5.297622108,325.7698578,6.74,'11111222,11111222,11111222' 
TABS,ioos:station:wmo:42046:1,2015-11-02T10:30:00Z,27.8903,-94.0367,4.0,5.394562077,325.9563103,6.97,'11111222,11111222,11111222' 
TABS,ioos:station:wmo:42046:1,2015-11-02T11:00:00Z,27.8903,-94.0367,4.0,6.248111715,317.1401856,7.9,'11111222,11111222,11111222' 
TABS,ioos:station:wmo:42046:1,2015-11-02T11:30:00Z,27.8903,-94.0367,4.0,4.887258945,316.2434544,5.94,'11111222,11111222,11111222' 
TABS,ioos:station:wmo:42046:1,2015-11-02T12:00:00Z,27.8903,-94.0367,4.0,4.578613327,309.9496782,5.83,'11111222,11111222,11111222' 
TABS,ioos:station:wmo:42046:1,2015-11-02T12:30:00Z,27.8903,-94.0367,4.0,5.677358541,301.8983338,6.61,'11111222,11111222,11111222' 
TABS,ioos:station:wmo:42046:1,2015-11-02T13:00:00Z,27.8903,-94.0367,4.0,4.646310364,302.6981035,6.19,'11111222,11111222,11111222' 
TABS,ioos:station:wmo:42046:1,2015-11-02T13:30:00Z,27.8903,-94.0367,4.0,5.612931498,297.249765,6.81,'11111222,11111222,11111222' 
TABS,ioos:station:wmo:42046:1,2015-11-02T14:00:00Z,27.8903,-94.0367,4.0,5.1523975,306.1581009,6.68,'11111222,11111222,11111222' 
TABS,ioos:station:wmo:42046:1,2015-11-02T14:30:00Z,27.8903,-94.0367,4.0,5.661960791,317.4334952,7.05,'11111222,11111222,11111222' 
TABS,ioos:station:wmo:42046:1,2015-11-02T15:00:00Z,27.8903,-94.0367,4.0,6.565135185,325.8014877,7.92,'11111222,11111222,11111222' 
TABS,ioos:station:wmo:42046:1,2015-11-02T15:30:00Z,27.8903,-94.0367,4.0,6.153665574,333.351522,7.24,'11111222,11111222,11111222' 
TABS,ioos:station:wmo:42046:1,2015-11-02T16:00:00Z,27.8903,-94.0367,4.0,5.262584916,331.3893968,6.73,'11111222,11111222,11111222' 
TABS,ioos:station:wmo:42046:1,2015-11-02T16:30:00Z,27.8903,-94.0367,4.0,4.69843591,330.2701034,5.63,'11111222,11111222,11111222' 
TABS,ioos:station:wmo:42046:1,2015-11-02T17:00:00Z,27.8903,-94.0367,4.0,4.255925281,327.766156,5.39,'11111222,11111222,11111222' 
TABS,ioos:station:wmo:42046:1,2015-11-02T17:30:00Z,27.8903,-94.0367,4.0,3.547647108,331.9178681,4.55,'11111222,11111222,11111222' 
TABS,ioos:station:wmo:42046:1,2015-11-02T18:00:00Z,27.8903,-94.0367,4.0,3.650890302,313.0020196,4.8,'11111222,11111222,11111222' 
TABS,ioos:station:wmo:42046:1,2015-11-02T18:30:00Z,27.8903,-94.0367,4.0,3.601888394,301.8366931,4.66,'11111222,11111222,11111222' 
TABS,ioos:station:wmo:42046:1,2015-11-02T19:00:00Z,27.8903,-94.0367,4.0,3.316941362,316.0992498,4.29,'11111222,11111222,11111222' 
TABS,ioos:station:wmo:42046:1,2015-11-02T19:30:00Z,27.8903,-94.0367,4.0,2.890691959,302.4255109,4.07,'11111222,11111222,11111222' 
TABS,ioos:station:wmo:42046:1,2015-11-02T20:00:00Z,27.8903,-94.0367,4.0,3.604719129,308.0143003,4.78,'11111222,11111222,11111222' 
TABS,ioos:station:wmo:42046:1,2015-11-02T20:30:00Z,27.8903,-94.0367,4.0,3.945478425,305.3012557,5.15,'11111222,11111222,11111222' 
TABS,ioos:station:wmo:42046:1,2015-11-02T21:00:00Z,27.8903,-94.0367,4.0,4.310406013,321.2155161,5.39,'11111222,11111222,11111222' 
TABS,ioos:station:wmo:42046:1,2015-11-02T21:30:00Z,27.8903,-94.0367,4.0,4.578318469,335.6180347,5.41,'11111222,11111222,11111222' 
TABS,ioos:station:wmo:42046:1,2015-11-02T22:00:00Z,27.8903,-94.0367,4.0,4.171390655,326.0431342,5.52,'11111222,11111222,11111222' 
TABS,ioos:station:wmo:42046:1,2015-11-02T22:30:00Z,27.8903,-94.0367,4.0,4.671702045,329.3726398,6.03,'11111222,11111222,11111222' 
TABS,ioos:station:wmo:42046:1,2015-11-02T23:00:00Z,27.8903,-94.0367,4.0,4.136786192,333.1250973,5.1,'11111222,11111222,11111222' 
TABS,ioos:station:wmo:42046:1,2015-11-02T23:30:00Z,27.8903,-94.0367,4.0,4.587428474,335.6695941,5.54,'11111222,11111222,11111222' 
TABS,ioos:station:wmo:42046:1,2015-11-03T00:00:00Z,27.8903,-94.0367,4.0,4.533574748,345.0439846,5.61,'11111222,11111222,11111222' 
TABS,ioos:station:wmo:42046:1,2015-11-03T00:30:00Z,27.8903,-94.0367,4.0,4.025046584,352.4333838,5.72,'11111222,11111222,11111222' 
TABS,ioos:station:wmo:42046:1,2015-11-03T01:00:00Z,27.8903,-94.0367,4.0,2.610938529,7.260883143,3.55,'11111222,11111222,11111222' 
TABS,ioos:station:wmo:42046:1,2015-11-03T01:30:00Z,27.8903,-94.0367,4.0,1.897076699,15.28136154,3.24,'11111222,11111222,11111222' 
TABS,ioos:station:wmo:42046:1,2015-11-03T02:00:00Z,27.8903,-94.0367,4.0,1.994617758,22.70798663,2.84,'11111222,11111222,11111222' 
TABS,ioos:station:wmo:42046:1,2015-11-03T02:30:00Z,27.8903,-94.0367,4.0,1.22380554,46.65516698,2.1,'11111222,11111222,11111222' 
TABS,ioos:station:wmo:42046:1,2015-11-03T03:00:00Z,27.8903,-94.0367,4.0,1.613102601,3.553959466,2.36,'11111222,11111222,11111222' 
TABS,ioos:station:wmo:42046:1,2015-11-03T03:30:00Z,27.8903,-94.0367,4.0,2.466617117,14.31768742,3.5,'11111222,11111222,11111222' 
TABS,ioos:station:wmo:42046:1,2015-11-03T04:00:00Z,27.8903,-94.0367,4.0,2.399541623,34.81567493,3.38,'11111222,11111222,11111222' 
TABS,ioos:station:wmo:42046:1,2015-11-03T04:30:00Z,27.8903,-94.0367,4.0,2.661014844,21.84113104,3.57,'11111222,11111222,11111222' 
TABS,ioos:station:wmo:42046:1,2015-11-03T05:00:00Z,27.8903,-94.0367,4.0,2.719503631,39.7782922,4.32,'11111222,11111222,11111222' 
TABS,ioos:station:wmo:42046:1,2015-11-03T05:30:00Z,27.8903,-94.0367,4.0,2.416712643,48.85835563,3.7,'11111222,11111222,11111222' 
TABS,ioos:station:wmo:42046:1,2015-11-03T06:00:00Z,27.8903,-94.0367,4.0,2.930273025,37.65174549,3.78,'11111222,11111222,11111222' 
TABS,ioos:station:wmo:42046:1,2015-11-03T06:30:00Z,27.8903,-94.0367,4.0,3.092765753,71.91617599,4.03,'11111222,11111222,11111222' 
TABS,ioos:station:wmo:42046:1,2015-11-03T07:00:00Z,27.8903,-94.0367,4.0,2.977247051,83.82941842,3.85,'11111222,11111222,11111222' 
TABS,ioos:station:wmo:42046:1,2015-11-03T07:30:00Z,27.8903,-94.0367,4.0,3.002215848,69.93499452,3.84,'11111222,11111222,11111222' 
TABS,ioos:station:wmo:42046:1,2015-11-03T08:00:00Z,27.8903,-94.0367,4.0,3.041397705,75.91767814,3.95,'11111222,11111222,11111222' 
TABS,ioos:station:wmo:42046:1,2015-11-03T08:30:00Z,27.8903,-94.0367,4.0,2.424644304,93.54726628,3.67,'11111222,11111222,11111222' 
TABS,ioos:station:wmo:42046:1,2015-11-03T09:00:00Z,27.8903,-94.0367,4.0,2.692953769,117.8976267,4.03,'11111222,11111222,11111222' 
TABS,ioos:station:wmo:42046:1,2015-11-03T09:30:00Z,27.8903,-94.0367,4.0,1.991230775,118.4959929,3.22,'11111222,11111222,11111222' 
TABS,ioos:station:wmo:42046:1,2015-11-03T10:00:00Z,27.8903,-94.0367,4.0,2.018960128,110.5896329,3.05,'11111222,11111222,11111222' 
TABS,ioos:station:wmo:42046:1,2015-11-03T10:30:00Z,27.8903,-94.0367,4.0,1.493753661,117.0800277,2.53,'11111222,11111222,11111222' 
TABS,ioos:station:wmo:42046:1,2015-11-03T11:00:00Z,27.8903,-94.0367,4.0,1.477057886,72.66873543,2.77,'11111222,11111222,11111222' 
TABS,ioos:station:wmo:42046:1,2015-11-03T11:30:00Z,27.8903,-94.0367,4.0,0.816088231,143.9729213,1.58,'11111222,11111222,11111222' 
TABS,ioos:station:wmo:42046:1,2015-11-03T12:00:00Z,27.8903,-94.0367,4.0,1.986680649,144.6302444,3.0,'11111222,11111222,11111222' 
TABS,ioos:station:wmo:42046:1,2015-11-03T12:30:00Z,27.8903,-94.0367,4.0,1.905911855,147.6443769,2.61,'11111222,11111222,11111222' 
TABS,ioos:station:wmo:42046:1,2015-11-03T13:00:00Z,27.8903,-94.0367,4.0,1.047854952,156.370888,1.7,'11111222,11111222,11111222' 
TABS,ioos:station:wmo:42046:1,2015-11-03T13:30:00Z,27.8903,-94.0367,4.0,1.594239631,160.2013804,2.54,'11111222,11111222,11111222' 
TABS,ioos:station:wmo:42046:1,2015-11-03T14:00:00Z,27.8903,-94.0367,4.0,1.851944924,173.4892062,3.52,'11111222,11111222,11111222' 
TABS,ioos:station:wmo:42046:1,2015-11-03T14:30:00Z,27.8903,-94.0367,4.0,1.234908904,158.6296382,2.16,'11111222,11111222,11111222' 
TABS,ioos:station:wmo:42046:1,2015-11-03T15:00:00Z,27.8903,-94.0367,4.0,0.613921819,167.7751164,1.51,'11111222,11111222,11111222' 
TABS,ioos:station:wmo:42046:1,2015-11-03T15:30:00Z,27.8903,-94.0367,4.0,1.62603813,121.9310284,2.38,'11111222,11111222,11111222' 
TABS,ioos:station:wmo:42046:1,2015-11-03T16:00:00Z,27.8903,-94.0367,4.0,1.240644994,91.84802686,2.0,'11111222,11111222,11111222' 
TABS,ioos:station:wmo:42046:1,2015-11-03T16:30:00Z,27.8903,-94.0367,4.0,1.622498074,123.6904097,2.42,'11111222,11111222,11111222' 
TABS,ioos:station:wmo:42046:1,2015-11-03T17:00:00Z,27.8903,-94.0367,4.0,1.44554488,104.4211603,2.72,'11111222,11111222,11111222' 
TABS,ioos:station:wmo:42046:1,2015-11-03T17:30:00Z,27.8903,-94.0367,4.0,1.391761474,87.11662237,2.69,'11111222,11111222,11111222' 
TABS,ioos:station:wmo:42046:1,2015-11-03T18:00:00Z,27.8903,-94.0367,4.0,1.523154621,119.9318628,2.27,'11111222,11111222,11111222' 
TABS,ioos:station:wmo:42046:1,2015-11-03T18:30:00Z,27.8903,-94.0367,4.0,1.615054179,97.82947912,2.63,'11111222,11111222,11111222' 
TABS,ioos:station:wmo:42046:1,2015-11-03T19:00:00Z,27.8903,-94.0367,4.0,1.300961183,124.6676393,2.85,'11111222,11111222,11111222' 
TABS,ioos:station:wmo:42046:1,2015-11-03T19:30:00Z,27.8903,-94.0367,4.0,1.483947438,129.8058989,2.46,'11111222,11111222,11111222' 
TABS,ioos:station:wmo:42046:1,2015-11-03T20:00:00Z,27.8903,-94.0367,4.0,1.4261136,142.4072105,2.91,'11111222,11111222,11111222' 
TABS,ioos:station:wmo:42046:1,2015-11-03T20:30:00Z,27.8903,-94.0367,4.0,1.325028302,108.0251023,2.32,'11111222,11111222,11111222' 
TABS,ioos:station:wmo:42046:1,2015-11-03T21:00:00Z,27.8903,-94.0367,4.0,1.109819805,114.4870446,2.14,'11111222,11111222,11111222' 
TABS,ioos:station:wmo:42046:1,2015-11-03T21:30:00Z,27.8903,-94.0367,4.0,0.892748565,175.5030694,2.05,'11111222,11111222,11111222' 
TABS,ioos:station:wmo:42046:1,2015-11-03T22:00:00Z,27.8903,-94.0367,4.0,0.868216563,122.7752216,2.15,'11111222,11111222,11111222' 
TABS,ioos:station:wmo:42046:1,2015-11-03T22:30:00Z,27.8903,-94.0367,4.0,1.147388339,149.6360105,1.76,'11111222,11111222,11111222' 
TABS,ioos:station:wmo:42046:1,2015-11-03T23:00:00Z,27.8903,-94.0367,4.0,1.338431918,83.56485498,2.17,'11111222,11111222,11111222' 
TABS,ioos:station:wmo:42046:1,2015-11-03T23:30:00Z,27.8903,-94.0367,4.0,2.032978111,86.89792231,2.85,'11111222,11111222,11111222' 
TABS,ioos:station:wmo:42046:1,2015-11-04T00:00:00Z,27.8903,-94.0367,4.0,0.0,0.0,0.0,'11111222,11111222,11111222' 
TABS,ioos:station:wmo:42046:1,2015-11-04T00:30:00Z,27.8903,-94.0367,4.0,2.932336952,76.38987901,3.89,'11111222,11111222,11111222' 
TABS,ioos:station:wmo:42046:1,2015-11-04T01:00:00Z,27.8903,-94.0367,4.0,3.01444854,101.8694729,3.88,'11111222,11111222,11111222' 
TABS,ioos:station:wmo:42046:1,2015-11-04T01:30:00Z,27.8903,-94.0367,4.0,3.989147779,93.88136516,5.17,'11111222,11111222,11111222' 
TABS,ioos:station:wmo:42046:1,2015-11-04T02:00:00Z,27.8903,-94.0367,4.0,3.765634077,116.1571344,4.71,'11111222,11111222,11111222' 
TABS,ioos:station:wmo:42046:1,2015-11-04T02:30:00Z,27.8903,-94.0367,4.0,4.271018614,112.0010678,5.14,'11111222,11111222,11111222' 
TABS,ioos:station:wmo:42046:1,2015-11-04T03:00:00Z,27.8903,-94.0367,4.0,4.617899956,109.6124688,5.68,'11111222,11111222,11111222' 
TABS,ioos:station:wmo:42046:1,2015-11-04T03:30:00Z,27.8903,-94.0367,4.0,4.643102411,112.8100787,5.97,'11111222,11111222,11111222' 
TABS,ioos:station:wmo:42046:1,2015-11-04T04:00:00Z,27.8903,-94.0367,4.0,4.263578309,113.4989316,5.58,'11111222,11111222,11111222' 
TABS,ioos:station:wmo:42046:1,2015-11-04T04:30:00Z,27.8903,-94.0367,4.0,4.870164268,113.0908232,5.9,'11111222,11111222,11111222' 
TABS,ioos:station:wmo:42046:1,2015-11-04T05:00:00Z,27.8903,-94.0367,4.0,5.197787991,112.2725798,6.28,'11111222,11111222,11111222' 
TABS,ioos:station:wmo:42046:1,2015-11-04T05:30:00Z,27.8903,-94.0367,4.0,4.680940077,114.4848388,5.35,'11111222,11111222,11111222' 
TABS,ioos:station:wmo:42046:1,2015-11-04T06:00:00Z,27.8903,-94.0367,4.0,4.777447017,115.278084,5.79,'11111222,11111222,11111222' 
TABS,ioos:station:wmo:42046:1,2015-11-04T06:30:00Z,27.8903,-94.0367,4.0,4.4815176,117.3658958,5.69,'11111222,11111222,11111222' 
TABS,ioos:station:wmo:42046:1,2015-11-04T07:00:00Z,27.8903,-94.0367,4.0,4.907076523,122.6864621,6.25,'11111222,11111222,11111222' 
TABS,ioos:station:wmo:42046:1,2015-11-04T07:30:00Z,27.8903,-94.0367,4.0,5.066014212,126.7345145,6.16,'11111222,11111222,11111222' 
TABS,ioos:station:wmo:42046:1,2015-11-04T08:00:00Z,27.8903,-94.0367,4.0,4.754418997,131.3336265,5.72,'11111222,11111222,11111222' 
TABS,ioos:station:wmo:42046:1,2015-11-04T08:30:00Z,27.8903,-94.0367,4.0,5.927031297,131.9228675,6.84,'11111222,11111222,11111222' 
TABS,ioos:station:wmo:42046:1,2015-11-04T09:00:00Z,27.8903,-94.0367,4.0,5.776088642,143.4478232,6.66,'11111222,11111222,11111222' 
TABS,ioos:station:wmo:42046:1,2015-11-04T09:30:00Z,27.8903,-94.0367,4.0,5.388107274,142.76885,6.52,'11111222,11111222,11111222' 
TABS,ioos:station:wmo:42046:1,2015-11-04T10:00:00Z,27.8903,-94.0367,4.0,5.554421662,144.8223577,6.5,'11111222,11111222,11111222' 
TABS,ioos:station:wmo:42046:1,2015-11-04T10:30:00Z,27.8903,-94.0367,4.0,5.3722714,143.7063225,6.7,'11111222,11111222,11111222' 
TABS,ioos:station:wmo:42046:1,2015-11-04T11:00:00Z,27.8903,-94.0367,4.0,4.933011251,152.8638422,5.73,'11111222,11111222,11111222' 
TABS,ioos:station:wmo:42046:1,2015-11-04T11:30:00Z,27.8903,-94.0367,4.0,4.935179835,139.2730865,5.95,'11111222,11111222,11111222' 
TABS,ioos:station:wmo:42046:1,2015-11-04T12:00:00Z,27.8903,-94.0367,4.0,4.803134393,136.6031629,6.33,'11111222,11111222,11111222' 
TABS,ioos:station:wmo:42046:1,2015-11-04T12:30:00Z,27.8903,-94.0367,4.0,5.544195163,141.5180278,6.55,'11111222,11111222,11111222' 
TABS,ioos:station:wmo:42046:1,2015-11-04T13:00:00Z,27.8903,-94.0367,4.0,4.738027016,143.323883,5.72,'11111222,11111222,11111222' 
TABS,ioos:station:wmo:42046:1,2015-11-04T13:30:00Z,27.8903,-94.0367,4.0,3.514612354,140.1947324,4.4,'11111222,11111222,11111222' 
TABS,ioos:station:wmo:42046:1,2015-11-04T14:00:00Z,27.8903,-94.0367,4.0,5.499272679,147.9286388,6.16,'11111222,11111222,11111222' 
TABS,ioos:station:wmo:42046:1,2015-11-04T14:30:00Z,27.8903,-94.0367,4.0,5.040089285,143.4714405,5.76,'11111222,11111222,11111222' 
TABS,ioos:station:wmo:42046:1,2015-11-04T15:00:00Z,27.8903,-94.0367,4.0,3.761980861,147.7043096,4.73,'11111222,11111222,11111222' 
TABS,ioos:station:wmo:42046:1,2015-11-04T15:30:00Z,27.8903,-94.0367,4.0,3.853310265,131.6338629,4.73,'11111222,11111222,11111222' 
TABS,ioos:station:wmo:42046:1,2015-11-04T16:00:00Z,27.8903,-94.0367,4.0,3.498714049,138.2443711,4.05,'11111222,11111222,11111222' 
TABS,ioos:station:wmo:42046:1,2015-11-04T16:30:00Z,27.8903,-94.0367,4.0,4.150048192,122.5033035,5.18,'11111222,11111222,11111222' 
TABS,ioos:station:wmo:42046:1,2015-11-04T17:00:00Z,27.8903,-94.0367,4.0,4.275628609,125.2887702,5.46,'11111222,11111222,11111222' 
TABS,ioos:station:wmo:42046:1,2015-11-04T17:30:00Z,27.8903,-94.0367,4.0,4.862972342,124.8668805,5.7,'11111222,11111222,11111222' 
TABS,ioos:station:wmo:42046:1,2015-11-04T18:00:00Z,27.8903,-94.0367,4.0,5.299150875,131.4812185,6.08,'11111222,11111222,11111222' 
TABS,ioos:station:wmo:42046:1,2015-11-04T18:30:00Z,27.8903,-94.0367,4.0,5.358544579,123.2752311,6.13,'11111222,11111222,11111222' 